STARLINK-32343, 61712

Orbit data source: Space-Track

STARLINK-32343, 61712 is a payload satellite owned by SpaceX/Seattle (US) in LEO that was launched on Wed, 30 Oct 2024 UTC via an FALCON 9 launch vehicle from the Air Force Eastern Test Range (AFETR). Payload-class satellites include a variety of spacecraft equipped with specific instruments for various scientific and technological missions. These include communications satellites like Starlink; space stations such as the ISS; scientific satellites like the Hubble; Earth observation satellites from companies like Planet Labs, Umbra, and HawkEye 360; GPS; miniature CubeSats for education and research; and military/defense satellites.

Loading next visibility...
Identifier
61712, 2024-196F
Orbit
LEO
Last TLE update
15 hours ago
Origin
Manufacturer
SpaceX/Seattle
Mission
Operational Commercial Communications
Bus & Motor
STARLINK V2M, Unknown motor
Mass
730 kg wet, ~700 kg dry
Launch date (UTC)
2024-10-30 (8 months ago)
Launch vehicle
FALCON 9
Launch site
Air Force Eastern Test Range (AFETR)
Object type
Payload
Rocket body
Debris
Shape & HBR
Box + 2 Pan, 29 m
Radar Cross Section
36.964 m², Large (>1 m²)

Expand to show TLE details & history

TLE from 15 hours ago
0 STARLINK-32343
1 61712U 24196F   25181.76012707  .00000413  00000-0  26073-4 0  9996
2 61712  53.1605 191.6269 0001220  79.2746 280.8392 15.30194155 38583
Epoch: 2025-06-30T18:14Z
TLE epoch observation values (Epoch: 2025-06-30T18:14:34.978Z)
Latitude
-0.00005°
Longitude
-1.08419°
Altitude
475.975 km
Speed
7.629 km/s
True Right ascension
12h 46m 30s
True Declination
0° 00' 00"
Sunlit
Object was in daylight at epoch
Visualization orbit readout
Latitude
25.3426°
Longitude
155.39843°
Altitude
475.923 km
Speed
7.632 km/s
Apparent Right ascension
02h 41m 17s
Apparent Declination
-16° 35' 41"
Sunlit
Object is in daylight
Visualization observer readout
Local Sidereal Time
20:37:50
Azimuth
102.351° ESE
Elevation
-11.203°
Doppler factor
1
Orbital elements
Apogee altitude
476.325 km
Perigee altitude
474.653 km
Semi-major axis
6,853.626 km
Eccentricity
0.00012
Inclination
53.1605°
RAAN
191.6269°
Arg. of periapsis
79.2746°
True anomaly
Unknown
Mean anomaly
280.8392°
Eccentric anomaly
Unknown
Mean motion
3.82527 °/min
Orbital period
94.11 mins
BSTAR
0.000026073
Loading maneuver chart data...
Loading SW <> Apogee altitude chart data...
Loading historical data...
Loading historical data...
Loading historical data...
Loading historical data...
Loading historical data...
Loading historical data...
Loading historical data...

STARLINK-32343 Visibility forecast

Observer location: undefined°, undefined°

Span
Click to sort rows by Start time (UTC) header in descending order
Start Az.
Max El. time (UTC)
Max El. Az.
Max El.
End time (UTC)
End Az.
6 mins2025-07-01 10:25:37.901Z306.257° NW2025-07-01 10:28:37.901Z193.865° SSW43.978°2025-07-01 10:31:37.901Z136.937° SSE
5 mins2025-07-02 03:21:37.901Z238.179° WSW2025-07-02 03:23:37.901Z275.412° WNW42.795°2025-07-02 03:26:37.901Z45.109° ENE
4 mins2025-07-02 08:18:37.901Z343.626° N2025-07-02 08:20:37.901Z21.301° NNE17.54°2025-07-02 08:22:37.901Z59.683° ENE
|